Weather History for LESA - December, 2013

Change the Weather History Date:

Thursday, December 5, 2013

  Actual Average Record
Temperature  
Mean Temperature 29 °F -  
Max Temperature 38 °F - - ()
Min Temperature 20 °F - - ()
Degree Days  
Heating Degree Days 36    
Moisture  
Dew Point 29 °F    
Average Humidity 96    
Maximum Humidity 100    
Minimum Humidity 85    
Precipitation  
Precipitation 0.00 in 0.05 in - ()
Sea Level Pressure  
Sea Level Pressure 30.41 in    
Wind  
Wind Speed 2 mph ()    
Max Wind Speed 8 mph    
Max Gust Speed -    
Visibility 1.6 miles    
Events Fog    
T = Trace of Precipitation, MM = Missing Value Source: Averaged Metar Reports

Daily Weather History Graph

Daily Weather History Graph

Search for Another Location

Airport or City:

Trip Planner

Search our weather history database for the weather conditions in past years. The results will help you decide how hot, cold, wet, or windy it might be!

Date:

Astronomy

Dec. 05, 2013 Rise Set
Actual Time 8:31 AM CET 5:53 PM CET
Civil Twilight 8:00 AM CET 6:24 PM CET
Nautical Twilight 7:26 AM CET 6:58 PM CET
Astronomical Twilight 6:53 AM CET 7:32 PM CET
Moon 10:39 AM CET (12/5) 8:58 PM CET (12/5)
Length of Visible Light 10h 23m
Length of Day
9h 22m
Waxing Crescent, 9% of the Moon is Illuminated
Dec 5
Waxing Crescent
Dec 9
First Quarter
Dec 17
Full
Dec 25
Last Quarter
Jan 1
New

Hourly Weather History & Observations

Time (CET) Temp. Windchill Dew Point Humidity Pressure Visibility Wind Dir Wind Speed Gust Speed Precip Events Conditions
12:00 AM 26 °F - 23 °F 85%  in - Calm Calm - -  
12:00 AM 26.6 °F - 24.8 °F 93% 30.39 in - Calm Calm - N/A   Clear
12:30 AM 26.6 °F - 24.8 °F 93% 30.42 in - Variable 2.3 mph - N/A   Clear
1:00 AM 26 °F - 24 °F 87%  in 6 mi SE 2.3 mph - -   Clear
1:00 AM 26.6 °F - 24.8 °F 93% 30.39 in - Variable 1.2 mph - N/A   Clear
1:30 AM 24.8 °F - 24.8 °F 100% 30.39 in - Calm Calm - N/A   Clear
2:00 AM 25 °F - 24 °F 94%  in - Calm Calm - -  
2:00 AM 24.8 °F - 23.0 °F 93% 30.39 in - Calm Calm - N/A   Clear
2:30 AM 24.8 °F - 23.0 °F 93% 30.39 in - Variable 1.2 mph - N/A   Clear
3:00 AM 24 °F - 22 °F 91%  in - WSW 2.3 mph - -  
3:00 AM 24.8 °F - 23.0 °F 93% 30.39 in - Calm Calm - N/A   Clear
3:30 AM 24.8 °F - 23.0 °F 93% 30.39 in - Calm Calm - N/A   Clear
4:00 AM 23.0 °F - 23.0 °F 100% 30.39 in - Calm Calm - N/A   Clear
4:30 AM 23.0 °F - 23.0 °F 100% 30.39 in 5.0 mi Calm Calm - N/A   Unknown
5:00 AM 22 °F - 20 °F 91%  in - Calm Calm - -  
5:00 AM 23.0 °F - 21.2 °F 93% 30.39 in 5.0 mi Calm Calm - N/A   Unknown
5:30 AM 23.0 °F - 21.2 °F 93% 30.39 in 5.0 mi Calm Calm - N/A   Unknown
6:00 AM 23 °F - 21 °F 91%  in - Calm Calm - -  
6:00 AM 23.0 °F - 23.0 °F 100% 30.39 in 5.0 mi Calm Calm - N/A   Unknown
6:30 AM 21.2 °F - 19.4 °F 93% 30.39 in 4.3 mi Calm Calm - N/A   Unknown
7:00 AM 21 °F - 20 °F 96%  in 4 mi Calm Calm - -   Mist
7:00 AM 21.2 °F - 21.2 °F 100% 30.39 in 4.3 mi Calm Calm - N/A   Unknown
7:30 AM 21.2 °F - 21.2 °F 100% 30.39 in 4.3 mi Calm Calm - N/A   Unknown
8:00 AM 21 °F - 20 °F 93%  in - Calm Calm - -  
8:00 AM 21.2 °F - 21.2 °F 100% 30.39 in 3.1 mi Calm Calm - N/A   Mist
8:13 AM 21.2 °F - 21.2 °F 100% 30.42 in 1.6 mi Calm Calm - N/A   Mostly Cloudy
8:30 AM 23.0 °F - 21.2 °F 93% 30.42 in 0.9 mi Calm Calm - N/A Fog Fog
9:00 AM 25 °F - 24 °F 95%  in - Calm Calm - -  
9:00 AM 24.8 °F - 24.8 °F 100% 30.42 in 1.2 mi Calm Calm - N/A Fog Fog
9:13 AM 26.6 °F - 26.6 °F 100% 30.42 in 0.2 mi Calm Calm - N/A Fog Light Freezing Fog
9:30 AM 28.4 °F - 26.6 °F 93% 30.42 in 0.1 mi Calm Calm - N/A Fog Light Freezing Fog
10:00 AM 30.2 °F - 28.4 °F 93% 30.45 in 0.1 mi Calm Calm - N/A Fog Light Freezing Fog
10:30 AM 30.2 °F - 30.2 °F 100% 30.45 in 0.1 mi Calm Calm - N/A Fog Light Freezing Fog
11:00 AM 33 °F - 33 °F 99%  in - East 5.8 mph - -  
11:00 AM 33.8 °F 29.6 °F 32.0 °F 93% 30.45 in 0.1 mi East 4.6 mph - N/A Fog Fog
11:30 AM 33.8 °F 28.6 °F 33.8 °F 100% 30.45 in 0.1 mi East 5.8 mph - N/A Fog Fog
12:00 PM 34 °F - 33 °F 96%  in - ENE 4.6 mph - -  
12:00 PM 33.8 °F 29.6 °F 33.8 °F 100% 30.45 in 0.2 mi ENE 4.6 mph - N/A Fog Fog
12:30 PM 33.8 °F - 33.8 °F 100% 30.42 in 0.2 mi Variable 2.3 mph - N/A Fog Fog
1:00 PM 36 °F - 35 °F 95%  in 0 mi East 3.5 mph - - Fog Heavy Fog
1:00 PM 35.6 °F - 35.6 °F 100% 30.42 in 0.2 mi Variable 2.3 mph - N/A Fog Fog
1:30 PM 35.6 °F - 35.6 °F 100% 30.42 in 0.2 mi Variable 2.3 mph - N/A Fog Fog
2:00 PM 37 °F - 35 °F 92%  in - ENE 5.8 mph - -  
2:00 PM 37.4 °F 32.8 °F 35.6 °F 93% 30.42 in 0.9 mi ENE 5.8 mph - N/A Fog Patches of Fog
2:30 PM 35.6 °F 29.2 °F 35.6 °F 100% 30.42 in 1.2 mi ENE 8.1 mph - N/A Fog Patches of Fog
3:00 PM 37 °F - 36 °F 92%  in - ENE 5.8 mph - -  
3:00 PM 37.4 °F 33.8 °F 35.6 °F 93% 30.42 in 1.2 mi ENE 4.6 mph - N/A Fog Patches of Fog
3:30 PM 37.4 °F 32.8 °F 35.6 °F 93% 30.39 in 0.9 mi East 5.8 mph - N/A Fog Patches of Fog
4:00 PM 37.4 °F 32.8 °F 35.6 °F 93% 30.39 in 0.9 mi East 5.8 mph - N/A Fog Patches of Fog
4:30 PM 37.4 °F 33.8 °F 37.4 °F 100% 30.42 in 0.7 mi East 4.6 mph - N/A Fog Patches of Fog
5:00 PM 38 °F - 36 °F 91%  in - ENE 5.8 mph - -  
5:00 PM 37.4 °F 32.8 °F 37.4 °F 100% 30.42 in 0.7 mi ENE 5.8 mph - N/A Fog Patches of Fog
5:30 PM 37.4 °F 33.8 °F 37.4 °F 100% 30.42 in 1.2 mi ENE 4.6 mph - N/A Fog Patches of Fog
6:00 PM 38 °F - 36 °F 90%  in - East 3.5 mph - -  
6:00 PM 37.4 °F 34.9 °F 37.4 °F 100% 30.39 in 1.2 mi East 3.5 mph - N/A Fog Patches of Fog
6:30 PM 37.4 °F 34.9 °F 35.6 °F 93% 30.42 in 2.5 mi NE 3.5 mph - N/A Fog Patches of Fog
7:00 PM 37 °F - 36 °F 93%  in 2 mi East 4.6 mph - -   Partly Cloudy
7:00 PM 37.4 °F 34.9 °F 35.6 °F 93% 30.42 in 2.5 mi East 3.5 mph - N/A Fog Patches of Fog
7:30 PM 37.4 °F 34.9 °F 35.6 °F 93% 30.42 in 2.2 mi East 3.5 mph - N/A Fog Patches of Fog
8:00 PM 37 °F - 36 °F 93%  in - ESE 2.3 mph - -  
8:00 PM 37.4 °F - 35.6 °F 93% 30.42 in 2.2 mi Variable 2.3 mph - N/A Fog Patches of Fog
8:30 PM 37.4 °F 34.9 °F 35.6 °F 93% 30.42 in 1.6 mi ESE 3.5 mph - N/A Fog Patches of Fog
9:00 PM 36 °F - 35 °F 97%  in - East 4.6 mph - -  
9:00 PM 37.4 °F 34.9 °F 35.6 °F 93% 30.42 in 0.1 mi East 3.5 mph - N/A Fog Fog
9:30 PM 35.6 °F 31.7 °F 35.6 °F 100% 30.42 in 0.1 mi ESE 4.6 mph - N/A Fog Fog
10:00 PM 35.6 °F - 33.8 °F 93% 30.42 in 0.1 mi Variable 2.3 mph - N/A Fog Fog
10:30 PM 33.8 °F 29.6 °F 33.8 °F 100% 30.42 in 0.1 mi ENE 4.6 mph - N/A Fog Fog
11:00 PM 34 °F - 34 °F 100%  in - East 4.6 mph - -  
11:00 PM 33.8 °F 29.6 °F 33.8 °F 100% 30.42 in 0.1 mi East 4.6 mph - N/A Fog Fog
11:30 PM 33.8 °F 28.6 °F 33.8 °F 100% 30.42 in 0.1 mi ENE 5.8 mph - N/A Fog Fog